Location: Doschendorf
(50.0069°N, 11.0602°E)
Time: 23:23:21
(UTC+00:00)

Cosmos 2233 Rocket - Pass Details

Date: 17 November 2019
Orbit: 954 x 990 km, 82.9° (Epoch: 06 December)

Event Time Altitude Azimuth Distance (km) Brightness Sun altitude
Rises 16:19:16 0° 349° (N) 3,716 6.9 -8.1°
Reaches altitude 10° 16:21:48 10° 349° (NNW) 2,762 6.3 -8.5°
Maximum altitude 16:28:09 80° 264° (W) 1,005 4.2 -9.4°
Drops below altitude 10° 16:34:24 10° 178° (S) 2,726 6.5 -10.4°
Sets 16:36:54 0° 177° (S) 3,664 7.2 -10.8°
